アトラス彗星

P/2019 A2 ( ATLAS )

English version
Home page
Updated on July 9, 2019

---------------------------------------------------------------------

・ プロフィール

発見日 2019年1月4日
発見光度 18.7等
発見者 Asteroid Terrestrial-Impact Last Alert System (ATLAS) search program

・ 写真集

・ 軌道要素

Epoch 2018 Nov. 18.0 TT = JDT 2458440.5
T 2018 Nov. 21.53424 TT                                 MPCW
q   3.5430357            (2000.0)            P               Q
n   0.07178153     Peri.  324.24114     -0.24959868     -0.95390460
a   5.7340427      Node   139.46274     +0.93734095     -0.28119992
e   0.3821051      Incl.   14.85543     +0.24308938     +0.10484569
P  13.73
From 269 observations 2018 Nov. 3-2019 May 4, mean residual 0".4.

・ 光度変化

        m1 = 10.5 + 5 logΔ + 10.0 log r

---------------------------------------------------------------------

軌道要素はM.P.E.C. 2019-J142に掲載されたものです。
光度グラフはComet for Windowsで作成したものです。

---------------------------------------------------------------------

Copyright(C) Seiichi Yoshida (comet@aerith.net). All rights reserved.